Flag for U.S.A. Weather past 2 weeks in Raleigh, North Carolina, U.S.A.

Now
66 °F

Mostly cloudy.


Feels Like: 66 °F
Forecast: 63 / 79 °F
Wind: 3 mph from Southwest

Location: Raleigh-Durham International Airport

Current Time: Apr 18, 2015 at 12:01:34 AM

Latest Report: Apr 17, 2015 at 10:51 PM


Visibility: 10 mi

Pressure: 30.01 "Hg

Humidity: 87%

Dew point: 62 °F

Location of RaleighLocation

Historic Weather in Raleigh — Graph

°F

Raleigh temperature yesterday

Maximum temperature yesterday: 78 °F (at 4:51 PM)
Minimum temperature yesterday: 57 °F (at 1:51 AM)
Average temperature yesterday: 66 °F

Past Weeks' High & Low Weather Summary

 TemperatureHumidityPressure
High84 °F (Apr 8, 3:51 PM)97% (Apr 8, 1:51 AM)30.39 "Hg (Apr 8, 1:51 AM)
Low35 °F (Apr 5, 6:51 AM)15% (Apr 4, 3:51 PM)29.78 "Hg (Apr 4, 3:51 AM)
Average64 °F66%30.15 "Hg
* Reported Apr 2 9:51 PM — Apr 17 9:51 PM, Raleigh, Weather by CustomWeather, © 2015

Note: Actual official high and low records may vary slightly from our data, if they occured in-between our weather recording intervals... More about our weather records

Advertising

Raleigh weather history for previous 24 hours

 ConditionsComfort  
Time TempWeatherWind HumidityBarometerVisibility
9:51 PM
Fri, Apr 17
67 °FPassing clouds.3 mph85%30.01 "Hg10 mi
8:51 PM68 °FPartly cloudy.3 mph82%30.00 "Hg10 mi
7:51 PM71 °FPartly sunny.3 mph73%29.98 "Hg10 mi
6:51 PM72 °FPartly sunny.6 mph73%29.98 "Hg10 mi
5:51 PM75 °FBroken clouds.No wind64%29.98 "Hg10 mi
4:51 PM78 °FPartly sunny.No wind56%29.99 "Hg10 mi
3:51 PM77 °FBroken clouds.6 mph62%30.00 "Hg10 mi
2:51 PM76 °FBroken clouds.7 mph67%30.04 "Hg10 mi
1:51 PM74 °FBroken clouds.3 mph71%30.08 "Hg10 mi
12:51 PM71 °FBroken clouds.5 mph73%30.11 "Hg10 mi
11:51 AM67 °FMostly cloudy.No wind81%30.12 "Hg3 mi
10:51 AM64 °FFog.No wind87%30.14 "Hg3 mi
9:51 AM62 °FLight rain. Low clouds.No wind86%30.16 "Hg3 mi
8:51 AM62 °FDrizzle. Mostly cloudy.No wind86%30.16 "Hg7 mi
7:51 AM60 °FCloudy.3 mph93%30.15 "Hg8 mi
6:51 AM59 °FMostly cloudy.No wind93%30.14 "Hg8 mi
5:51 AM59 °FPassing clouds.No wind93%30.15 "Hg9 mi
4:51 AM59 °FPartly cloudy.No wind93%30.14 "Hg9 mi
3:51 AM59 °FMostly cloudy.3 mph90%30.15 "Hg9 mi
2:51 AM58 °FMostly cloudy.No wind93%30.16 "Hg9 mi
1:51 AM57 °FPassing clouds.No wind96%30.18 "Hg10 mi
12:51 AM59 °FPartly cloudy.3 mph90%30.20 "Hg10 mi
Weather by CustomWeather, © 2015

See weather overviewHow to use our weather pages